Regional Weather Roundup
Issued by NWS Upton, NY

Current Version | Previous Version | Text Only | Print | Product List | Glossary Off
Versions: 1 2 3 4 5 6 7 8 9 10 11 12 13 14 15 16 17 18 19 20 21 22 23 24 25 26 27 28 29 30 31 32 33 34 35 36 37 38 39 40 41 42 43 44 45 46 47 48 49 50
000 ASUS41 KOKX 242104 RWROKX REGIONAL WEATHER ROUNDUP NATIONAL WEATHER SERVICE NEW YORK NY 500 PM EDT SAT SEP 24 2016 NOTE: "FAIR" INDICATES FEW OR NO CLOUDS BELOW 12,000 FEET WITH NO SIGNIFICANT WEATHER AND/OR OBSTRUCTIONS TO VISIBILITY. NYZ071-072-176-178-NJZ106-104-242200- NEW YORK CITY METRO AREA CITY SKY/WX TMP DP RH WIND PRES REMARKS Central Park SUNNY 69 42 37 NE8 30.10S LaGuardia APRT MOSUNNY 71 42 35 N9 30.07S Kennedy INTL MOSUNNY 71 41 33 N10G18 30.08S Newark/Liberty MOSUNNY 71 42 35 N6 30.07S Bronx Bot Gard N/A 70 39 32 W3 30.10R Wall St Helipt CLEAR 73 45 35 NE7 30.08S Teterboro SUNNY 71 40 32 NE7 30.06F $$ NYZ177-179-078>081-242200- LONG ISLAND NEW YORK CITY SKY/WX TMP DP RH WIND PRES REMARKS Farmingdale SUNNY 70 43 37 N9 30.07S MacArthur/ISP MOSUNNY 69 45 41 N6 30.07S Shirley SUNNY 68 46 45 N6 30.08S Riverhead NOT AVBL Westhampton SUNNY 68 42 38 N7 30.09S Southampton N/A 68 46 45 N5 30.04S Bridgehampton N/A 64 48 55 CALM 29.93R East Hampton PTSUNNY 66 45 47 N6 30.07R Montauk N/A 67 43 41 N7 30.08S $$ NYZ052-065-067-242200- HUDSON VALLEY CITY SKY/WX TMP DP RH WIND PRES REMARKS White Plains MOSUNNY 68 40 35 N10G17 30.08S Newburgh MOSUNNY 68 45 42 NE12 30.09F Montgomery MOSUNNY 70 44 39 NE8 30.08S Poughkeepsie MOSUNNY 68 39 34 N8 30.08S Albany MOSUNNY 66 41 40 N7 30.10F $$ NJZ001-105-106-008-010-013-015-019>022-104-242200- NEW JERSEY CITY SKY/WX TMP DP RH WIND PRES REMARKS Newark/Liberty MOSUNNY 71 42 35 N6 30.07S Teterboro SUNNY 71 40 32 NE7 30.06F Caldwell SUNNY 71 44 37 E3 30.08F Morristown MOSUNNY 70 48 46 NE3 30.07F Somerville SUNNY 73 43 33 NW9 30.06S Linden NOT AVBL Sussex SUNNY 70 40 33 N8 30.08S Abdover N/A 69 43 38 VRB7 30.09S Trenton MOSUNNY 72 47 40 N7 30.07F Millville CLOUDY 65 60 84 NE7 30.09S Atlantic City CLOUDY 66 55 67 N6 30.09R Wrightstown NOT AVBL Toms River MOSUNNY 67 54 63 CALM 30.09S Belmar SUNNY 68 47 46 N9 30.09S $$ PAZ047>061-062-071-242200- EASTERN PENNSYLVANIA CITY SKY/WX TMP DP RH WIND PRES REMARKS Philadelphia PTSUNNY 72 54 53 CALM 30.08F Allentown SUNNY 73 44 35 N12 30.08S Scranton SUNNY 68 43 40 N8 30.12S $$ CTZ002-004>006-009-010-012-RIZ004-006-007-MAZ004-011-015-242200- SOUTHERN NEW ENGLAND IN CT CITY SKY/WX TMP DP RH WIND PRES REMARKS Bradley INTL MOSUNNY 67 39 35 N12 30.08S Hartford PTSUNNY 69 40 34 N9 30.06F Danbury SUNNY 66 38 35 N14G22 30.09F Wtrbury/Oxford MOSUNNY 66 36 32 N16G22 30.10R Bridgeport SUNNY 71 39 31 NW14 30.06S Meriden SUNNY 70 36 28 N8 30.06S New Haven MOSUNNY 69 39 33 NW10 30.06S Chester FAIR 66 39 37 N8G14 30.07S Groton SUNNY 70 41 34 N10 30.06S Wilimantic SUNNY 68 40 35 NW7 30.07F IN RI CITY SKY/WX TMP DP RH WIND PRES REMARKS Providence MOSUNNY 68 37 32 NW10 30.06S Block Island SUNNY 65 45 48 N5 30.07R Westerly MOSUNNY 68 39 34 NW10 30.07S IN MA CITY SKY/WX TMP DP RH WIND PRES REMARKS Boston MOSUNNY 65 36 34 NW14 30.05F Worcester SUNNY 60 38 43 NW8 30.08S Westfield SUNNY 66 37 34 NW12 30.08S Provincetown SUNNY 61 43 51 NE6 30.06F Nantucket SUNNY 62 42 47 N17 30.05R $$ ANZ330-335-338-340-345-350-353-355-242200- COASTAL MARINE OBSERVATIONS STATION/POSITION TIME SKY/WX TEMP WIND PRES VSBY WAVE AIR SEA DIR/SP/G HT/PER (UTC) (F) (DEG/KT/KT) (MB) (MI) (FT/S) NY HARB ENTRANCE 1950 65 72 70/ 4/ 6 1018.2 4/ 6 20S FIRE ISLAND 1950 64 71 40/ 10/ 14 1017.9 5/10 GREAT SOUTH BAY 2030 68 73 360/ 6/ 14 N/A 23 SSW MONTAUK P 1950 63 69 30/ 8/ 10 1018.4 5/10 15 E BARNEGAT LI 2030 71 N/A 5/10 HUDSON CANYON 1950 65 70 1017.2 6/10 KINGS POINT 2030 69 74 1018.2 EXECUTION ROCKS 2045 70 350/ 8/ 14 N/A CENTRAL LI SOUND NOT AVBL EASTERN LI SOUND NOT AVBL ROBBINS REEF 2030 68 10/ 9/ 11 1018.5 $$ >>>>>>>>>>>>>>>>>>>>>>>>>>>> KEY <<<<<<<<<<<<<<<<<<<<<<<<<<< > < > SKY/WX - Sky Condition/Present Weather < > TMP - Temperature in Fahrenheit < > DP - Dew Point in Fahrenheit < > RH - Relative Humidity in Percent < > WIND - Direction (from) and Speed in MPH < > PRES - Mean Sea Level Pressure (inches of Hg) < > WCI - Wind Chill Index < > VSB - VISIBILITY IN MILES < > HX - HEAT INDEX < > TC - TEMPERATURE IN CELSIUS < > VRB - VARIABLE WIND DIRECTION < > < >>>>>>>>>>>>>>>>>>>>>>>>>>>> KEY <<<<<<<<<<<<<<<<<<<<<<<<<<<

USA.gov is the U.S. government's official web portal to all federal, state and local government web resources and services.